Location: Arroyo de Valdeoliva
(40.1604°N, 4.9878°W)
Time: 08:42:39
(UTC+00:00)

Cosmos 1825 Rocket - Pass Details

Date: 19 March 2026
Orbit: 596 x 624 km, 82.5° (Epoch: 18 April)

Event Time Altitude Azimuth Distance (km) Brightness Sun altitude
Rises 05:18:27 0° 356° (N) 2,893 7.1 -13.5°
Reaches altitude 10° 05:20:44 10° 1° (N) 1,979 6.3 -13.1°
Maximum altitude 05:25:02 56° 80° (E) 727 4.3 -12.3°
Drops below altitude 10° 05:29:16 10° 159° (SSE) 1,947 6.3 -11.5°
Sets 05:31:30 0° 164° (SSE) 2,841 7.1 -11.1°
